CDT,Max TemperatureF,Mean TemperatureF,Min TemperatureF,Max Dew PointF,MeanDew PointF,Min DewpointF,Max Humidity, Mean Humidity, Min Humidity, Max Sea Level PressureIn, Mean Sea Level PressureIn, Min Sea Level PressureIn, Max VisibilityMiles, Mean VisibilityMiles, Min VisibilityMiles, Max Wind SpeedMPH, Mean Wind SpeedMPH, Max Gust SpeedMPH,PrecipitationIn, CloudCover, Events, WindDirDegrees
2013-9-1,98,85,71,70,68,64,84,59,33,29.93,29.87,29.81,10,9,7,13,7,16,0.00,0,,201
2013-9-2,87,81,74,76,73,70,94,78,61,30.01,29.92,29.86,10,6,0,23,6,29,1.11,5,Rain-Thunderstorm,183
2013-9-3,93,82,71,75,71,64,93,71,49,30.02,29.96,29.91,10,7,1,21,6,26,1.45,4,Rain-Thunderstorm,49
2013-9-4,92,80,67,67,64,60,87,62,36,30.11,30.06,30.00,10,10,10,12,6,15,0.00,0,,27
2013-9-5,94,80,65,72,65,55,93,61,28,30.14,30.09,30.05,10,9,4,9,4,12,0.00,0,,15
2013-9-6,97,81,65,71,66,57,93,61,28,30.13,30.06,30.01,10,8,2,9,4,13,0.00,0,,71
2013-9-7,97,84,70,72,68,65,90,63,36,30.08,30.02,29.96,10,10,6,10,3,13,0.00,1,,127
2013-9-8,97,83,68,72,67,65,93,64,35,30.01,29.97,29.91,10,10,6,9,3,15,0.00,1,,175
2013-9-9,97,83,69,72,68,66,90,64,38,30.07,30.00,29.95,10,9,6,9,3,15,0.00,0,,211
2013-9-10,97,84,71,73,68,64,90,63,35,30.14,30.09,30.03,10,8,5,12,3,15,0.00,2,,109
2013-9-11,94,83,72,73,69,66,93,69,44,30.16,30.10,30.04,10,8,3,12,3,15,0.00,0,,131
2013-9-12,97,83,69,70,66,62,90,62,33,30.08,30.01,29.93,10,10,7,9,3,,0.00,1,,351
2013-9-13,91,79,67,71,64,54,87,62,37,29.99,29.95,29.88,10,8,2,18,10,25,0.00,2,,27
2013-9-14,83,69,55,56,52,47,93,61,28,30.07,30.02,29.97,10,10,2,15,7,18,0.00,0,,26
2013-9-15,92,72,51,58,52,45,93,57,20,30.11,30.06,30.03,10,10,8,13,3,16,0.00,0,,344
2013-9-16,96,79,61,67,59,55,84,58,31,30.14,30.08,30.04,10,10,10,14,4,16,0.00,1,,18
2013-9-17,95,80,64,64,61,57,84,57,30,30.14,30.07,30.00,10,10,10,13,5,16,0.00,1,,75
2013-9-18,94,80,66,70,65,60,84,60,36,30.10,30.04,29.98,10,10,7,13,6,17,0.00,0,,134
2013-9-19,92,81,69,71,68,65,97,69,41,30.09,30.02,29.94,10,9,4,18,7,24,0.00,1,,143
2013-9-20,82,77,71,76,73,70,94,88,82,29.99,29.86,29.79,10,6,0,30,7,39,1.85,7,Fog-Rain-Thunderstorm,172
2013-9-21,80,70,59,70,63,54,97,70,42,29.92,29.85,29.78,10,9,5,20,10,26,0.07,5,Rain,13
2013-9-22,80,68,55,56,54,50,93,65,37,29.95,29.90,29.85,10,10,10,17,7,22,0.00,0,,33
2013-9-23,86,70,53,64,57,52,100,67,34,29.94,29.89,29.84,10,10,10,10,4,14,0.00,0,,82
2013-9-24,86,77,68,73,70,65,100,80,59,29.90,29.85,29.80,10,6,0,13,3,16,2.18,6,Fog-Rain-Thunderstorm,50
2013-9-25,85,74,63,68,65,58,100,70,40,29.86,29.80,29.77,10,4,0,14,5,18,0.00,1,Fog,325
2013-9-26,87,74,60,68,62,59,100,70,40,29.98,29.92,29.85,10,9,4,9,3,12,0.00,1,,92
2013-9-27,88,77,66,70,66,62,100,72,43,30.07,30.01,29.97,10,5,0,12,5,18,0.00,3,Fog,124
2013-9-28,86,76,66,66,63,61,87,68,48,30.12,30.05,30.00,10,10,10,14,7,20,0.00,3,,142
2013-9-29,74,72,69,70,68,60,93,79,64,30.04,29.96,29.93,10,4,1,13,5,18,0.97,8,Rain,154
2013-9-30,85,78,70,72,69,67,97,79,61,29.96,29.93,29.88,10,7,2,20,6,25,0.10,6,Rain,172